This is the latest recevied weather packets stored in our database for station/object IW2NIA-3. If no packets are shown the sender has not sent any weather packets the latest 10 day(s).
| Time | Temp. | Humidity | Pressure | Rain* | Wind** | Luminosity | Snow |
|---|---|---|---|---|---|---|---|
| 1787497415 | 28.33° C | 51% | 1017.4 hPa | 0 mm | - | - | - |
| 1787496516 | 28.33° C | 50% | 1017.5 hPa | 0 mm | - | - | - |
| 1787495616 | 28.33° C | 51% | 1017.5 hPa | 0 mm | - | - | - |
| 1787494710 | 28.33° C | 51% | 1017.6 hPa | 0 mm | - | - | - |
| 1787493809 | 27.78° C | 51% | 1017.6 hPa | 0 mm | - | - | - |
| 1787492920 | 27.78° C | 54% | 1017.7 hPa | 0 mm | - | - | - |
| 1787492019 | 27.22° C | 54% | 1017.8 hPa | 0 mm | - | - | - |
| 1787491114 | 27.78° C | 51% | 1018.1 hPa | 0 mm | - | - | - |
| 1787490214 | 27.22° C | 58% | 1018.2 hPa | 0 mm | - | - | - |
| 1787489327 | 27.22° C | 58% | 1018.2 hPa | 0 mm | - | - | - |
| 1787488423 | 27.22° C | 60% | 1018.3 hPa | 0 mm | - | - | - |
| 1787487520 | 27.22° C | 59% | 1018.4 hPa | 0 mm | - | - | - |
| 1787486615 | 26.67° C | 58% | 1018.4 hPa | 0 mm | - | - | - |
| 1787485714 | 26.67° C | 56% | 1018.5 hPa | 0 mm | - | - | - |
| 1787484815 | 26.67° C | 59% | 1018.4 hPa | 0 mm | - | - | - |
| 1787483917 | 26.11° C | 59% | 1018.5 hPa | 0 mm | - | - | - |
| 1787483011 | 25.56° C | 58% | 1018.7 hPa | 0 mm | - | - | - |
| 1787482109 | 25.56° C | 61% | 1018.9 hPa | 0 mm | - | - | - |
| 1787481211 | 25.56° C | 61% | 1019 hPa | 0 mm | - | - | - |
| 1787480308 | 24.44° C | 66% | 1019.2 hPa | 0 mm | - | - | - |
| 1787479410 | 23.89° C | 66% | 1019.3 hPa | 0 mm | - | - | - |
| 1787478528 | 23.89° C | 67% | 1019.3 hPa | 0 mm | - | - | - |
| 1787477612 | 23.33° C | 67% | 1019.5 hPa | 0 mm | - | - | - |
| 1787476711 | 23.89° C | 66% | 1019.5 hPa | 0 mm | - | - | - |
| 1787475824 | 23.33° C | 67% | 1019.5 hPa | 0 mm | - | - | - |
* Rain latest hour (hover to see other rain measurements)
** Current wind speed in m/s (hover to see current wind gust speed)